Weather History for YCIN - June, 2013

Change the Weather History Date:

Sunday, June 2, 2013

  Actual Average Record
Temperature  
Mean Temperature 78 °F -  
Max Temperature 89 °F - - ()
Min Temperature 66 °F - - ()
Cooling Degree Days 12    
Growing Degree Days 28 (Base 50)    
Moisture  
Dew Point 50 °F    
Average Humidity 38    
Maximum Humidity 57    
Minimum Humidity 21    
Precipitation  
Precipitation 0.00 in - - ()
Sea Level Pressure  
Sea Level Pressure 29.88 in    
Wind  
Wind Speed 10 mph ()    
Max Wind Speed 15 mph    
Max Gust Speed -    
T = Trace of Precipitation, MM = Missing Value Source: Averaged Metar Reports

Daily Weather History Graph

Daily Weather History Graph

Search for Another Location

Airport or City:

Trip Planner

Search our weather history database for the weather conditions in past years. The results will help you decide how hot, cold, wet, or windy it might be!

Date:

Astronomy

Jun. 02, 2013 Rise Set
Actual Time 6:08 AM AWST 5:16 PM AWST
Civil Twilight 5:45 AM AWST 5:40 PM AWST
Nautical Twilight 5:18 AM AWST 6:07 PM AWST
Astronomical Twilight 4:51 AM AWST 6:33 PM AWST
Moon 12:30 AM AWST (6/2) 12:47 PM AWST (6/2)
Length of Visible Light 11h 55m
Length of Day
11h 08m
Waning Crescent, 36% of the Moon is Illuminated
Jun 2
Waning Crescent
Jun 8
New
Jun 17
First Quarter
Jun 23
Full
Jun 30
Last Quarter

Hourly Weather History & Observations

Time (AWST) Temp. Heat Index Dew Point Humidity Pressure Visibility Wind Dir Wind Speed Gust Speed Precip Events Conditions
12:00 AM 73 °F - 46 °F 28% 29.93 in - South 11.5 mph - -  
12:00 AM 73.4 °F - 46.4 °F 38% 29.92 in - South 11.5 mph - N/A   Unknown
1:00 AM 69.8 °F - 46.4 °F 43% 29.92 in - SSE 11.5 mph - N/A   Unknown
2:00 AM 69.8 °F - 44.6 °F 40% 29.92 in - SSE 11.5 mph - N/A   Unknown
3:00 AM 69 °F - 44 °F 28% 29.91 in - SSE 13.8 mph - -  
3:00 AM 69.8 °F - 42.8 °F 38% 29.92 in - SSE 13.8 mph - N/A   Unknown
4:00 AM 68.0 °F - 42.8 °F 40% 29.92 in - SSE 12.7 mph - N/A   Unknown
5:00 AM 68.0 °F - 42.8 °F 40% 29.92 in - SSE 11.5 mph - N/A   Unknown
6:00 AM 67 °F - 44 °F 32% 29.93 in - SSE 11.5 mph - -  
6:00 AM 68.0 °F - 44.6 °F 43% 29.92 in - SSE 11.5 mph - N/A   Unknown
7:00 AM 68.0 °F - 44.6 °F 43% 29.92 in - SE 12.7 mph - N/A   Unknown
8:00 AM 71.6 °F - 44.6 °F 38% 29.95 in - SE 15.0 mph - N/A   Unknown
9:00 AM 76 °F - 46 °F 24% 29.94 in - ESE 12.7 mph - -  
9:00 AM 77.0 °F - 46.4 °F 34% 29.92 in - ESE 12.7 mph - N/A   Unknown
10:00 AM 80.6 °F - 50.0 °F 34% 29.92 in - ESE 12.7 mph - N/A   Unknown
11:00 AM 82.4 °F - 50.0 °F 32% 29.89 in - ESE 11.5 mph - N/A   Unknown
12:00 PM 86 °F - 52 °F 21% 29.87 in - ESE 11.5 mph - -  
12:00 PM 86.0 °F - 51.8 °F 31% 29.86 in - ESE 11.5 mph - N/A   Unknown
1:00 PM 86.0 °F - 51.8 °F 31% 29.83 in - SE 10.4 mph - N/A   Unknown
2:00 PM 87.8 °F 85.7 °F 53.6 °F 31% 29.80 in - ESE 8.1 mph - N/A   Unknown
3:00 PM 88 °F - 54 °F 22% 29.80 in - SE 9.2 mph - -  
3:00 PM 87.8 °F 86.1 °F 55.4 °F 33% 29.80 in - SE 9.2 mph - N/A   Unknown
4:00 PM 87.8 °F 85.7 °F 53.6 °F 31% 29.80 in - SE 8.1 mph - N/A   Unknown
5:00 PM 82.4 °F 82.0 °F 57.2 °F 42% 29.83 in - SSE 4.6 mph - N/A   Unknown
6:00 PM 77 °F - 56 °F 38% 29.83 in - South 4.6 mph - -  
6:00 PM 77.0 °F - 57.2 °F 50% 29.83 in - South 4.6 mph - N/A   Unknown
7:00 PM 73.4 °F - 55.4 °F 53% 29.86 in - South 4.6 mph - N/A   Unknown
8:00 PM 71.6 °F - 55.4 °F 57% 29.86 in - SSE 4.6 mph - N/A   Unknown
9:00 PM 72 °F - 56 °F 46% 29.88 in - South 5.8 mph - -  
9:00 PM 71.6 °F - 55.4 °F 57% 29.89 in - South 5.8 mph - N/A   Unknown
10:00 PM 71.6 °F - 55.4 °F 57% 29.86 in - SSE 5.8 mph - N/A   Unknown
11:00 PM 73.4 °F - 53.6 °F 50% 29.86 in - SSE 8.1 mph - N/A   Unknown